Temperature
30 31 31 30 30 30 31 31 31 31 31 31 31 30 28 26 25 24 23 23 22 22 21 21 21 20 20 20 19 19 19 18 18 18 18 17 17 17 17 16 16 16 15 15
28 29 30 30 30 30 30 31 31 31 31 31 29 28 27 25 25 24 23 22 22 21 21 21 21 21 20 20 20 19 19 18 18 18 17 17 17 16 16 16 16 15 15 15
28 29 29 29 30 30 30 30 31 31 31 30 29 27 26 25 24 24 23 22 21 21 21 21 21 20 20 20 19 19 19 18 18 18 17 17 16 16 16 16 15 15 15 14
28 27 27 29 30 30 30 30 30 30 30 29 28 26 24 24 23 23 22 22 21 20 20 20 20 20 20 19 19 19 18 18 18 17 17 17 16 16 16 15 15 15 14 14
28 27 28 28 28 29 29 29 29 29 28 27 26 26 25 23 22 22 21 21 20 20 20 20 20 20 19 19 19 18 18 18 17 17 17 17 16 16 15 15 14 14 14 13
27 27 27 28 28 27 28 28 28 27 27 26 26 29 26 22 21 21 21 20 20 20 20 20 20 19 19 19 18 18 18 17 17 17 16 16 16 15 15 14 14 14 13 13
26 27 28 27 26 26 27 27 26 26 25 25 25 25 22 21 20 20 20 20 19 19 19 19 19 19 19 18 18 18 17 17 17 16 16 16 15 15 14 14 13 13 13 13
26 26 27 25 26 27 25 24 24 24 24 23 22 21 20 20 20 19 19 19 19 19 19 19 18 18 18 18 17 17 17 16 16 16 15 15 15 14 14 13 13 13 12 12
26 25 23 23 23 22 22 22 22 22 22 21 21 20 19 19 19 19 19 19 19 18 18 18 18 17 17 17 17 17 17 16 16 15 15 14 14 14 13 13 12 12 12 11
23 23 22 21 21 21 21 21 21 21 20 20 20 19 19 18 18 18 18 18 18 18 18 18 17 17 17 17 17 16 16 16 15 15 14 14 13 13 12 12 12 12 11 11
22 22 22 21 20 20 20 20 20 20 20 19 19 18 18 18 17 17 17 18 18 17 17 17 17 17 16 16 16 16 15 15 14 14 14 13 13 13 12 12 12 11 11 11
23 21 22 20 19 19 19 19 19 19 19 19 18 18 17 17 17 17 17 17 17 17 17 16 16 16 16 16 15 15 15 14 14 14 13 13 13 12 12 12 11 11 11 10
19 19 19 18 18 18 18 18 18 18 18 17 17 17 17 16 16 16 16 16 16 16 16 16 16 15 15 15 15 14 14 14 13 13 13 12 12 12 11 11 11 11 10 10
17 17 18 17 18 17 17 17 17 17 17 17 17 16 16 16 16 16 16 16 16 16 16 15 15 15 15 14 14 14 14 14 13 13 13 12 12 11 11 10 10 10 10 10
17 17 17 17 16 16 16 16 16 16 16 16 16 16 16 16 16 16 15 15 15 15 15 15 14 14 14 14 14 13 13 13 13 13 12 12 11 11 10 10 10 10 9 9
16 16 16 16 16 16 16 16 16 16 16 16 15 15 15 15 15 15 15 14 14 14 14 14 14 14 13 13 13 13 13 13 13 12 12 11 11 11 10 10 10 10 9 9
16 17 17 16 16 16 16 16 16 16 15 15 15 15 15 15 14 14 14 14 14 14 14 13 13 13 13 13 13 12 12 12 12 12 11 11 11 11 10 10 10 10 9 9
16 16 16 16 16 16 15 15 15 15 15 15 14 14 14 15 14 14 14 14 13 13 13 13 13 13 12 12 12 12 12 12 12 11 11 11 10 10 10 10 10 10 9 9
15 15 15 15 15 15 15 15 15 14 14 14 14 14 14 14 14 14 13 13 13 13 13 13 13 12 12 12 12 12 11 11 11 11 11 10 10 10 10 10 10 10 9 9
15 15 15 15 15 14 14 14 14 14 14 14 14 13 13 13 13 13 13 13 13 12 13 12 12 12 12 11 11 11 11 11 11 11 10 10 10 10 10 10 10 10 9 9
14 14 14 14 14 14 14 14 14 13 13 13 13 13 13 13 13 13 13 12 12 12 12 12 12 11 11 11 11 11 11 11 11 10 10 10 10 10 10 10 10 9 9 9
13 14 13 13 13 13 13 13 13 13 13 13 13 13 13 12 12 12 12 12 12 12 12 11 11 11 11 11 11 11 10 10 10 10 10 10 10 10 10 9 9 9 9 9
13 13 12 12 12 12 12 12 13 13 12 12 12 12 12 12 12 12 12 12 11 11 11 11 11 11 11 11 10 10 10 10 10 10 10 10 10 10 9 9 9 9 9 9
12 12 12 12 12 12 12 12 12 12 12 12 12 12 12 12 11 12 11 11 11 11 11 11 11 11 10 10 10 10 10 10 10 10 10 10 9 9 9 9 9 9 9 8
11 11 11 11 11 11 11 11 11 11 11 11 11 11 11 11 11 11 11 11 11 10 10 10 10 10 10 10 10 10 10 10 10 10 9 9 9 9 9 9 9 9 8 8
10 11 11 10 11 11 11 11 11 11 11 11 11 11 11 10 10 10 10 10 10 10 10 10 10 10 9 9 9 9 9 9 9 9 9 9 9 9 9 9 8 8 8 8
10 10 10 10 10 10 10 10 10 10 10 10 10 10 10 10 10 10 10 9 9 9 9 9 9 9 9 9 9 9 9 9 9 9 9 9 9 9 9 8 8 8 8 8
Wind_Speed
9 7 10 13 14 14 15 14 12 9 9 6 3 3 5 7 9 10 10 10 10 10 9 9 9 8 8 7 7 7 7 7 6 5 5 4 4 3 3 4 4 4 4 4
10 9 11 11 12 13 13 12 12 10 8 3 2 4 5 7 9 10 10 10 10 10 10 10 9 9 8 8 8 8 7 7 6 6 6 5 5 5 5 5 5 5 5 5
12 11 11 14 13 13 12 11 11 11 6 3 3 3 4 6 8 9 10 10 10 9 9 9 9 9 9 8 8 8 7 7 7 7 6 6 6 6 6 5 5 6 6 6
10 11 15 9 6 9 10 9 8 6 3 2 2 3 3 4 6 7 8 9 9 8 8 9 9 9 9 9 9 9 8 7 7 7 7 7 6 6 6 5 6 6 5 6
11 14 12 7 6 9 10 9 6 6 4 2 4 4 4 3 4 6 7 8 8 8 9 9 10 10 10 10 10 9 8 7 6 6 7 8 7 6 6 6 6 6 5 6
11 14 13 8 7 5 7 9 5 5 4 4 5 6 3 4 3 5 6 7 7 8 9 9 9 10 10 10 9 8 7 7 6 6 7 7 7 7 6 6 6 6 6 6
13 12 8 4 5 7 10 5 3 3 4 4 3 1 4 4 5 6 7 8 8 9 9 8 9 10 10 9 8 7 7 8 7 7 7 7 7 7 7 7 7 6 7 6
12 13 8 4 6 6 1 3 2 2 2 3 3 5 5 6 6 7 7 8 9 9 8 7 8 9 9 8 8 8 8 8 8 7 7 7 8 7 7 7 7 7 6 5
5 3 4 3 2 2 2 2 2 2 3 4 5 5 6 6 6 6 7 8 8 9 8 7 6 7 8 8 8 9 9 8 8 8 7 7 8 8 7 6 5 5 5 4
2 2 2 2 2 2 1 2 2 2 3 5 5 6 6 6 6 6 7 7 7 8 8 6 6 6 6 7 8 9 9 8 8 8 7 7 5 5 5 5 4 4 4 4
3 3 3 3 1 1 2 2 3 4 4 5 6 6 5 5 5 5 6 6 6 6 7 6 6 6 6 7 8 9 9 8 8 7 7 7 5 3 3 3 2 2 3 4
3 2 2 2 1 1 3 3 4 4 5 5 5 5 5 5 5 5 5 5 6 6 6 6 6 6 6 6 7 8 8 8 7 7 7 7 7 6 9 7 8 7 6 3
1 1 1 1 1 1 3 4 4 5 5 5 5 6 5 5 4 4 5 5 5 5 5 6 6 6 6 6 7 7 7 7 6 7 7 7 7 7 6 6 7 7 6 6
1 2 2 2 2 4 4 5 6 6 6 5 5 5 5 5 5 5 4 4 5 5 5 5 5 5 5 6 6 7 7 7 7 6 6 6 6 6 6 6 6 5 5 6
2 3 2 3 4 5 5 5 6 6 5 5 4 4 4 5 5 4 3 4 4 4 4 4 4 4 5 6 6 6 6 6 6 6 6 6 6 6 6 6 6 6 7 6
2 3 4 4 5 5 5 5 5 5 5 5 4 4 4 4 4 4 3 3 4 4 3 4 4 4 5 6 6 6 6 7 6 6 6 6 6 6 6 6 6 6 6 6
5 5 6 5 5 4 4 4 4 4 4 4 3 4 4 4 4 4 4 3 3 3 4 4 5 5 6 6 7 6 6 7 8 7 6 7 6 6 6 6 6 6 5 5
5 4 4 4 4 4 3 3 3 4 4 4 4 4 5 5 5 5 5 4 4 4 4 4 5 5 6 6 6 6 6 7 7 6 6 6 6 6 6 6 6 6 6 7
4 4 3 3 4 3 3 3 3 3 3 4 5 5 5 4 5 5 5 5 5 5 4 5 6 6 6 6 6 6 7 7 7 6 6 6 6 6 6 6 6 6 6 6
4 4 3 3 3 3 3 4 4 4 4 5 5 5 5 5 5 5 5 5 4 3 5 6 7 6 6 6 5 6 6 7 7 6 6 6 6 6 6 6 6 6 5 6
4 4 3 3 3 2 3 3 4 4 5 5 6 6 5 5 5 5 5 5 4 5 6 7 6 6 6 6 6 5 6 6 6 6 6 6 6 6 6 6 5 5 5 5
2 2 2 2 2 2 2 2 3 4 4 5 5 5 5 6 6 5 5 4 5 5 5 5 5 5 5 6 6 6 6 6 6 6 6 5 5 6 6 6 6 5 5 5
2 2 2 1 1 1 1 1 2 3 3 4 5 5 6 5 5 5 4 4 5 6 5 4 6 8 5 5 5 5 6 6 5 5 5 5 4 5 5 5 5 5 5 5
1 1 1 1 1 1 1 1 1 2 2 3 3 4 4 4 4 3 3 6 6 6 4 6 8 7 6 5 5 5 5 5 5 5 5 5 4 5 5 5 5 5 5 5
1 1 1 1 1 1 1 1 2 2 3 2 3 3 3 3 3 3 4 6 6 6 5 7 8 7 5 4 4 4 4 4 4 4 4 4 5 5 4 4 4 4 3 3
0 0 0 0 0 1 1 2 2 2 3 3 3 3 2 3 4 4 5 6 7 5 5 5 5 6 5 4 4 4 4 4 4 4 4 4 4 4 4 3 4 3 3 3
1 1 1 1 1 1 2 2 2 2 2 3 3 3 3 3 4 5 5 5 6 5 4 4 5 5 4 4 4 4 4 3 4 4 4 4 3 3 3 3 3 3 3 3
Wind_Direction
236 214 203 207 207 209 224 236 241 233 236 237 222 179 157 157 160 160 160 160 161 163 159 159 157 157 158 157 156 154 154 151 144 136 125 120 115 109 106 95 88 84 78 69
212 210 211 215 213 213 222 232 238 241 237 222 148 154 157 163 168 170 169 167 164 163 161 161 159 158 155 154 153 155 153 148 141 135 130 126 112 99 94 88 83 82 79 76
210 204 210 219 215 214 217 224 229 230 228 173 178 174 175 176 178 178 174 170 168 167 164 162 160 157 154 151 148 148 148 147 143 141 135 126 119 114 108 102 95 87 84 83
214 202 220 222 208 217 220 222 230 243 242 221 202 174 170 178 180 179 174 170 166 163 158 157 154 151 148 145 144 145 148 148 145 144 134 126 123 118 114 111 104 96 91 91
218 216 217 194 193 205 212 220 222 229 222 188 151 160 141 121 162 175 170 165 161 157 151 148 148 147 147 146 146 147 149 148 149 146 137 132 129 127 122 118 111 107 100 97
218 225 222 200 178 200 216 216 201 210 207 188 187 219 166 120 133 143 146 148 148 143 138 140 144 147 149 148 149 152 150 144 141 140 137 136 133 130 126 125 120 112 99 92
219 225 223 144 153 180 211 200 155 189 193 192 197 342 106 121 121 125 132 139 139 136 134 138 143 148 150 150 152 149 142 137 137 138 137 135 132 131 131 128 120 112 104 94
219 224 210 129 176 200 119 64 114 142 154 154 123 111 114 111 115 123 129 133 134 130 127 132 143 150 150 150 148 143 142 141 140 141 139 136 135 136 138 138 134 128 120 111
226 220 83 115 117 70 66 83 91 107 123 132 131 126 116 107 111 119 127 130 130 128 126 127 137 146 147 146 146 145 144 142 142 140 137 140 144 146 148 151 149 142 141 131
187 148 121 132 116 90 74 80 89 114 128 135 131 127 118 112 114 121 126 132 132 131 128 129 133 135 141 145 149 149 147 146 146 145 140 136 140 147 149 150 152 149 145 140
197 164 156 151 113 81 91 101 109 114 121 128 127 125 119 115 115 118 121 124 128 132 133 130 130 131 137 143 150 150 147 148 149 147 142 139 130 107 129 109 99 137 144 149
209 174 205 144 88 97 126 123 119 121 119 116 120 123 118 112 114 119 123 125 128 132 131 132 135 135 137 144 152 153 151 154 153 150 148 147 139 119 59 70 73 62 49 68
10 75 92 122 113 117 133 126 123 122 121 118 118 125 125 119 115 117 120 127 133 132 133 136 138 137 138 146 154 156 155 156 156 155 154 154 152 151 140 107 86 78 73 77
195 175 162 165 146 127 126 119 114 110 108 107 111 119 124 124 117 115 118 124 127 126 131 136 138 140 144 150 154 156 155 151 155 155 156 157 158 159 156 152 146 133 111 107
206 209 177 153 148 138 134 133 130 127 119 112 114 117 123 124 120 112 112 118 123 129 137 142 145 148 152 155 155 155 155 155 154 151 154 157 158 161 159 156 152 147 144 139
190 177 171 168 164 158 153 147 141 136 130 129 130 126 124 124 121 118 125 141 145 144 148 155 158 158 160 157 154 152 147 138 149 152 153 157 160 162 161 160 161 161 162 159
207 195 185 185 179 172 167 160 152 148 142 144 144 143 141 145 147 145 153 163 156 152 158 161 160 162 166 165 163 157 152 151 155 156 159 161 162 165 167 169 169 168 168 154
224 213 200 195 189 181 178 169 161 162 162 164 166 169 169 168 169 165 161 158 151 151 157 156 153 159 164 167 165 159 160 164 168 166 165 168 169 173 173 173 175 176 168 158
205 199 193 194 194 189 186 182 186 184 181 181 182 185 187 181 170 163 161 166 171 174 166 151 145 163 163 164 167 168 169 167 168 169 169 165 175 178 178 179 181 183 178 171
188 190 188 180 175 181 187 189 193 198 201 198 192 189 188 180 170 169 172 182 190 176 160 156 165 169 165 167 182 172 169 168 168 170 172 175 180 181 184 187 187 187 189 189
177 178 177 174 171 180 196 206 208 206 201 197 195 193 189 183 178 179 186 189 173 160 158 159 174 170 166 161 190 176 170 169 172 177 181 182 183 185 188 193 196 198 196 195
153 148 152 157 161 169 185 205 204 200 194 191 191 188 184 184 184 186 192 190 168 155 165 172 173 144 149 170 181 178 177 178 178 177 177 180 183 190 196 199 202 202 199 201
118 125 143 146 149 152 164 186 184 186 188 187 185 185 186 186 190 189 189 172 164 165 174 162 130 132 164 185 175 176 175 174 174 172 173 179 186 195 200 202 204 205 205 206
139 137 137 126 132 151 154 134 137 161 173 179 179 176 177 181 188 191 164 140 147 159 161 129 135 157 193 180 171 170 169 169 173 176 177 181 189 198 201 202 205 207 208 214
132 120 120 158 177 172 146 160 153 155 163 157 153 161 178 183 177 161 149 150 146 155 152 145 155 173 187 178 169 169 171 174 182 188 188 194 195 196 197 199 206 210 210 209
129 124 87 101 129 150 162 166 157 154 159 155 150 151 147 143 148 152 148 151 153 155 150 151 162 179 186 181 177 178 178 173 184 201 201 199 197 193 191 196 201 203 200 200
161 152 138 118 125 140 144 146 141 146 158 157 149 147 143 141 143 143 143 149 155 159 159 162 169 174 175 177 177 179 184 187 191 196 192 192 191 191 189 196 207 201 195 186
Height
1497 1495 1497 1502 1505 1508 1510 1508 1513 1511 1511 1509 1510 1514 1519 1522 1525 1528 1531 1533 1536 1538 1540 1542 1545 1546 1549 1550 1552 1553 1554 1555 1555 1556 1556 1556 1556 1556 1555 1555 1555 1554 1554 1554
1504 1500 1500 1503 1503 1505 1507 1506 1506 1507 1508 1506 1512 1515 1518 1521 1524 1526 1529 1531 1534 1536 1538 1540 1542 1544 1547 1548 1550 1551 1552 1553 1554 1554 1555 1555 1555 1555 1554 1555 1555 1555 1554 1554
1505 1501 1504 1510 1502 1503 1504 1503 1504 1507 1506 1508 1511 1515 1517 1520 1522 1524 1527 1529 1532 1534 1536 1538 1541 1543 1545 1547 1548 1549 1551 1552 1552 1553 1554 1554 1555 1555 1555 1555 1555 1555 1555 1555
1502 1508 1520 1502 1495 1497 1500 1501 1502 1503 1505 1508 1511 1515 1517 1519 1521 1523 1525 1527 1530 1532 1534 1537 1539 1541 1543 1545 1546 1548 1549 1551 1551 1552 1552 1553 1554 1555 1555 1555 1555 1555 1555 1554
1501 1507 1506 1501 1498 1498 1501 1503 1503 1504 1507 1509 1512 1513 1516 1518 1519 1521 1523 1525 1527 1530 1532 1535 1537 1539 1541 1543 1545 1546 1548 1549 1550 1551 1551 1552 1553 1554 1554 1555 1555 1555 1555 1555
1500 1506 1509 1497 1495 1499 1502 1506 1503 1505 1507 1509 1510 1507 1512 1517 1518 1520 1522 1524 1526 1529 1531 1533 1535 1538 1540 1542 1544 1545 1547 1548 1549 1550 1551 1551 1552 1553 1553 1554 1554 1555 1555 1555
1498 1501 1494 1493 1497 1501 1508 1505 1504 1505 1507 1509 1510 1510 1514 1516 1517 1519 1520 1522 1525 1527 1529 1531 1534 1536 1538 1540 1542 1544 1545 1547 1548 1549 1550 1551 1551 1552 1553 1553 1554 1554 1554 1554
1495 1500 1500 1497 1498 1499 1502 1504 1505 1506 1508 1510 1512 1513 1514 1516 1517 1518 1519 1521 1524 1526 1528 1530 1533 1535 1537 1539 1541 1542 1544 1546 1547 1548 1549 1550 1551 1551 1552 1553 1553 1554 1554 1554
1492 1496 1499 1500 1501 1503 1505 1505 1506 1507 1509 1511 1512 1513 1515 1516 1517 1518 1519 1521 1523 1525 1527 1530 1532 1534 1536 1537 1539 1541 1543 1544 1545 1547 1548 1549 1550 1551 1551 1552 1553 1553 1554 1554
1496 1497 1500 1502 1503 1504 1506 1507 1508 1509 1509 1511 1512 1514 1515 1516 1517 1518 1520 1521 1523 1525 1527 1529 1531 1532 1534 1535 1537 1539 1541 1543 1544 1545 1547 1548 1549 1550 1551 1552 1552 1553 1553 1553
1497 1499 1501 1503 1504 1505 1506 1507 1508 1509 1510 1511 1512 1514 1515 1516 1517 1518 1520 1521 1523 1525 1526 1528 1530 1531 1533 1534 1536 1538 1539 1541 1543 1544 1545 1546 1547 1548 1549 1550 1551 1552 1552 1553
1494 1500 1500 1503 1505 1505 1506 1507 1508 1509 1511 1512 1513 1514 1516 1516 1518 1519 1520 1521 1523 1525 1526 1527 1529 1530 1531 1532 1534 1536 1537 1539 1541 1542 1543 1545 1546 1547 1547 1548 1549 1550 1550 1551
1500 1502 1503 1504 1505 1505 1506 1507 1508 1510 1511 1512 1513 1515 1516 1517 1518 1519 1520 1521 1523 1524 1525 1526 1528 1529 1530 1531 1533 1534 1536 1538 1540 1541 1542 1543 1544 1545 1546 1547 1548 1549 1550 1550
1501 1502 1503 1504 1505 1506 1506 1507 1508 1509 1511 1512 1514 1515 1516 1516 1518 1519 1520 1521 1522 1523 1524 1525 1526 1527 1528 1530 1531 1533 1535 1536 1538 1539 1541 1542 1543 1544 1545 1546 1547 1548 1549 1549
1501 1502 1503 1504 1505 1506 1507 1508 1509 1510 1511 1512 1514 1514 1515 1516 1516 1518 1520 1521 1522 1523 1524 1525 1525 1526 1527 1528 1530 1531 1533 1535 1537 1538 1540 1541 1542 1543 1545 1546 1547 1548 1548 1549
1501 1501 1502 1503 1504 1505 1506 1507 1508 1510 1511 1512 1513 1514 1515 1515 1516 1517 1519 1520 1521 1522 1523 1523 1524 1525 1526 1527 1528 1530 1531 1533 1535 1536 1538 1539 1541 1542 1544 1545 1546 1547 1548 1549
1500 1501 1502 1503 1504 1505 1506 1507 1508 1510 1511 1512 1513 1513 1514 1515 1516 1516 1518 1520 1521 1521 1521 1522 1523 1524 1525 1526 1527 1529 1530 1532 1533 1535 1536 1538 1539 1541 1543 1544 1545 1546 1547 1548
1499 1500 1501 1502 1503 1504 1505 1507 1508 1509 1510 1511 1512 1513 1513 1514 1515 1516 1517 1519 1519 1520 1520 1521 1522 1523 1524 1525 1527 1528 1529 1530 1532 1533 1535 1536 1538 1540 1541 1543 1544 1545 1546 1546
1498 1499 1500 1501 1502 1503 1504 1505 1507 1508 1509 1510 1511 1512 1513 1513 1514 1515 1516 1517 1517 1518 1519 1520 1520 1522 1523 1524 1525 1526 1528 1529 1530 1532 1533 1534 1536 1538 1540 1541 1542 1544 1545 1545
1496 1498 1499 1500 1501 1502 1503 1504 1505 1506 1507 1508 1509 1510 1511 1511 1512 1513 1514 1515 1516 1517 1517 1518 1519 1520 1521 1522 1524 1525 1527 1528 1529 1531 1532 1533 1535 1536 1538 1539 1541 1542 1543 1543
1495 1496 1497 1498 1499 1500 1501 1502 1503 1504 1505 1506 1507 1508 1508 1509 1510 1511 1512 1514 1515 1515 1516 1517 1518 1518 1519 1520 1522 1524 1525 1527 1528 1529 1530 1532 1533 1534 1536 1537 1538 1539 1540 1541
1494 1495 1496 1497 1498 1499 1499 1500 1501 1502 1502 1503 1505 1506 1506 1507 1508 1509 1510 1512 1512 1513 1514 1515 1516 1517 1517 1519 1521 1523 1524 1525 1527 1528 1529 1530 1531 1532 1534 1535 1536 1537 1538 1539
1494 1494 1495 1496 1496 1497 1498 1498 1499 1499 1500 1501 1502 1503 1504 1505 1506 1507 1508 1509 1510 1511 1512 1513 1514 1515 1516 1518 1520 1521 1522 1524 1525 1526 1527 1528 1529 1530 1531 1533 1534 1535 1536 1536
1493 1494 1494 1494 1495 1495 1496 1496 1497 1498 1499 1499 1500 1501 1502 1503 1504 1505 1506 1507 1508 1509 1511 1512 1513 1514 1515 1517 1519 1520 1521 1522 1524 1525 1526 1527 1528 1529 1529 1530 1531 1532 1533 1533
1492 1492 1492 1493 1493 1494 1494 1495 1495 1496 1497 1498 1499 1500 1501 1502 1503 1504 1504 1505 1507 1508 1510 1511 1512 1514 1515 1517 1518 1519 1520 1521 1523 1524 1524 1525 1526 1527 1528 1528 1529 1530 1530 1530
1490 1491 1491 1491 1492 1492 1493 1493 1494 1495 1496 1496 1497 1498 1499 1500 1501 1502 1503 1504 1506 1507 1509 1510 1512 1513 1515 1516 1518 1519 1520 1520 1521 1522 1523 1524 1525 1525 1526 1526 1527 1527 1527 1528
1489 1489 1490 1490 1491 1491 1492 1492 1493 1494 1495 1495 1496 1497 1498 1499 1500 1501 1503 1504 1506 1508 1509 1511 1512 1514 1515 1516 1517 1518 1519 1520 1520 1521 1522 1522 1523 1524 1524 1524 1524 1525 1525 1525